Find OPS 9317

NORAD ID: 2221 Int'l Des: 1966-053 Owner: AFSSD Country: US operational
MEOCIRCULAR

Aktuelle Ansicht

3D-Globus wird geladen...

Über OPS 9317

Beschreibung wird geladen...

Nächste Überflüge

Passes for default location (London). Set your location on the main map for personalized predictions.

Höhenverlauf

Loading altitude history...

Zweizeiliger Elementsatz

1 2221U 66053H 26149.90552110 -.00000065 00000-0 00000+0 0 9993
2 2221 8.4024 47.1654 0080265 174.8478 185.0875 1.06869936 50832
Epoch: 29. Mai 2026 • Age: 42 hours

Aktueller Status

Höhe 34270.6 km
Geschwindigkeit 3.12 km/s
Subsatellitenpunkt -6.20°S, 123.89°W
Typ other

Most Searched